Wales, AK

11:31 AM AKST on December 10, 2016 (GMT -0900)
Tin City LRRS

Weather History for PATC - April, 2014

Change the Weather History Date:

Friday, April 4, 2014

  Actual Average Record
Temperature  
Mean Temperature 2 °F -  
Max Temperature 5 °F 15 °F 28 °F (1998)
Min Temperature -2 °F 3 °F -11 °F (2005)
Degree Days  
Heating Degree Days 63    
Moisture  
Dew Point -2 °F    
Average Humidity 89    
Maximum Humidity 92    
Minimum Humidity 85    
Precipitation  
Precipitation 0.00 in - - ()
Sea Level Pressure  
Sea Level Pressure 29.78 in    
Wind  
Wind Speed - (North)    
Max Wind Speed -    
Max Gust Speed -    
Averages and records for this station are not official NWS values.
T = Trace of Precipitation, MM = Missing Value Source: NWS Daily Summary

Daily Weather History Graph

Daily Weather History Graph

Search for Another Location

Airport or City:

Trip Planner

Search our weather history database for the weather conditions in past years. The results will help you decide how hot, cold, wet, or windy it might be!

Date:

Astronomy

Apr. 04, 2014 Rise Set
Actual Time 8:14 AM AKDT 10:16 PM AKDT
Civil Twilight 7:20 AM AKDT 11:11 PM AKDT
Nautical Twilight 6:07 AM AKDT 12:25 AM AKDT
Astronomical Twilight 4:07 AM AKDT 2:38 AM AKDT
Moon 10:06 AM AKDT (4/4) 4:20 AM AKDT (4/4)
Length of Visible Light 15h 51m
Length of Day
14h 02m
Waxing Crescent, 27% of the Moon is Illuminated
Apr 4
Waxing Crescent
Apr 7
First Quarter
Apr 14
Full
Apr 21
Last Quarter
Apr 28
New

Hourly Weather History & Observations

Time (AKDT) Temp. Dew Point Humidity Pressure Visibility Wind Dir Wind Speed Gust Speed Precip Events Conditions
12:18 AM 6.8 °F 5.0 °F 92% 29.75 in 0.2 mi North - - N/A Snow Snow
12:55 AM 5.7 °F 3.7 °F 92% 29.76 in 0.2 mi North - - 0.00 in Snow Heavy Snow
1:55 AM 4.8 °F 2.8 °F 92% 29.75 in 0.2 mi North - - 0.00 in Snow Snow
2:18 AM 5.0 °F 3.2 °F 92% 29.76 in 0.5 mi North - - N/A Snow Light Snow
2:55 AM 3.9 °F 1.8 °F 91% 29.76 in 0.5 mi North - - 0.00 in Snow Light Snow
3:38 AM 3.2 °F 1.4 °F 92% 29.76 in 1.0 mi North - - N/A Snow Light Snow
3:55 AM 2.5 °F 0.1 °F 90% 29.76 in 1.2 mi North - - 0.00 in Snow Light Snow
4:38 AM 1.4 °F -0.4 °F 92% 29.77 in 0.8 mi North - - N/A Snow Light Snow
4:55 AM 1.4 °F -0.9 °F 90% 29.76 in 0.8 mi North - - 0.00 in Snow Light Snow
5:55 AM 0.9 °F -1.7 °F 89% 29.77 in 0.8 mi North - - 0.00 in Snow Light Snow
6:18 AM -0.4 °F -2.2 °F 92% 29.77 in 1.0 mi North - - N/A Snow Light Snow
6:38 AM -0.4 °F -2.2 °F 92% 29.76 in 0.8 mi North - - N/A Snow Light Snow
6:55 AM -0.0 °F -2.7 °F 88% 29.76 in 1.0 mi North - - 0.00 in Snow Light Snow
7:55 AM -0.0 °F -2.6 °F 89% 29.77 in 0.8 mi North - - 0.00 in Snow Light Snow
8:18 AM -0.4 °F -2.2 °F 92% 29.75 in 1.0 mi North - - N/A Snow Light Snow
8:55 AM -0.6 °F -3.3 °F 88% 29.76 in 0.8 mi North - - 0.00 in Snow Light Snow
8:58 AM -0.4 °F -4.0 °F 85% 29.76 in 1.0 mi North - - N/A Snow Light Snow
9:18 AM -0.4 °F -4.0 °F 85% 29.77 in 0.8 mi North - - N/A Snow Light Snow
9:55 AM -0.9 °F -3.6 °F 88% 29.77 in 0.5 mi North - - 0.00 in Fog , Snow Light Snow
10:38 AM -0.4 °F -4.0 °F 85% 29.77 in 0.2 mi North - - N/A Snow Heavy Snow
10:55 AM -1.1 °F -3.8 °F 88% 29.77 in 0.2 mi North - - 0.00 in Snow Heavy Snow
11:55 AM -2.9 °F -6.0 °F 87% 29.78 in 0.2 mi North - - 0.00 in Snow Snow
12:55 PM -2.9 °F -5.6 °F 88% 29.79 in 0.5 mi North - - 0.00 in Fog , Snow Light Snow
1:18 PM -2.2 °F -5.8 °F 85% 29.79 in 0.2 mi North - - N/A Fog , Snow Light Snow
1:55 PM -2.2 °F -4.7 °F 89% 29.77 in 0.2 mi North - - 0.00 in Fog , Snow Light Snow
2:55 PM -1.5 °F -4.2 °F 88% 29.75 in 0.2 mi North - - 0.00 in Snow Light Snow
3:55 PM -0.0 °F -2.6 °F 89% 29.74 in 0.2 mi North - - 0.00 in Snow Light Snow
4:55 PM 0.7 °F -1.8 °F 89% 29.75 in 0.2 mi North - - 0.00 in Fog , Snow Snow
5:55 PM 1.0 °F -1.1 °F 91% 29.78 in 0.2 mi North - - 0.00 in Fog , Snow Light Snow
6:55 PM 0.9 °F -1.8 °F 88% 29.76 in 0.2 mi North - - 0.00 in Fog , Snow Light Snow
7:38 PM -0.4 °F -2.2 °F 92% 29.80 in 0.5 mi North - - N/A Fog , Snow Light Snow
7:55 PM -0.0 °F -2.6 °F 89% 29.80 in 0.5 mi North - - 0.00 in Fog , Snow Light Snow
8:18 PM -0.4 °F -2.2 °F 92% 29.80 in 0.2 mi North - - N/A Fog , Snow Light Snow
8:38 PM -0.4 °F -2.2 °F 92% 29.81 in 0.5 mi North - - N/A Fog , Snow Light Snow
8:55 PM -0.8 °F -3.6 °F 88% 29.81 in 0.5 mi North - - 0.00 in Fog , Snow Light Snow
9:55 PM -2.0 °F -4.9 °F 88% 29.83 in 0.8 mi North - - 0.00 in Snow Light Snow
10:38 PM -2.2 °F -5.8 °F 85% 29.83 in 0.5 mi North - - N/A Fog , Snow Light Snow Showers
10:55 PM -2.9 °F -5.4 °F 89% 29.82 in 0.5 mi North - - 0.00 in Fog , Snow Light Snow Showers
11:18 PM -2.2 °F -4.0 °F 92% 29.82 in 0.8 mi North - - N/A Snow Light Snow
11:55 PM -2.0 °F -4.7 °F 88% 29.81 in 0.5 mi North - - 0.00 in Fog , Snow Light Snow